{"data":{"norad_id":60294,"epoch":"2026-09-21T07:04:41.443968Z","epoch_age_seconds":116877,"freshness":"FRESH","line1":"1 60294U 24132S   26264.29492412 -.00003857  00000+0 -11253-3 0  9995","line2":"2 60294  53.1589 222.7874 0001116  94.1466 265.9663 15.31713596121524","mean_motion":15.31713596,"eccentricity":0.0001116,"inclination_deg":53.1589,"raan_deg":222.7874,"arg_perigee_deg":94.1466,"mean_anomaly_deg":265.9663,"bstar":-0.00011253,"rev_number":12152,"period_min":94.012353468722,"perigee_km":469.93513640725,"apogee_km":471.46379670658,"semimajor_km":6848.8364665569,"source":"CELESTRAK","updated_at":"2026-09-22T09:00:49.194775Z"}}